| time (UTC) | temp C | wind direction | speed KPH | gust KPH | rain 1hr cm | rain 24hr cm | rain mn cm | humidity % | barometer mb |
| 20260904194613 | 16 | 215 | 0.0 | 0.0 | 0.00 | 0.00 | 0.18 | 57 | 1014.2 |
| 20260904193105 | 15 | 216 | 0.0 | 0.0 | 0.00 | 0.00 | 0.18 | 59 | 1014.6 |
| 20260904191546 | 15 | 233 | 3.2 | 0.0 | 0.00 | 0.00 | 0.18 | 60 | 1014.6 |
| 20260904190046 | 15 | 265 | 3.2 | 0.0 | 0.00 | 0.00 | 0.18 | 62 | 1014.4 |
| 20260904184526 | 15 | 178 | 1.6 | 0.0 | 0.00 | 0.00 | 0.18 | 65 | 1014.6 |
| 20260904183018 | 14 | 177 | 1.6 | 0.0 | 0.00 | 0.00 | 0.18 | 65 | 1014.6 |
| 20260904181617 | 13 | 180 | 1.6 | 0.0 | 0.00 | 0.00 | 0.18 | 68 | 1014.7 |
| 20260904180121 | 13 | 180 | 1.6 | 0.0 | 0.00 | 0.00 | 0.18 | 67 | 1014.6 |
| 20260904174608 | 13 | 182 | 1.6 | 0.0 | 0.00 | 0.00 | 0.18 | 70 | 1014.7 |
| 20260904173041 | 12 | 186 | 1.6 | 0.0 | 0.00 | 0.00 | 0.18 | 74 | 1014.6 |
| 20260904171535 | 12 | 180 | 1.6 | 0.0 | 0.00 | 0.00 | 0.18 | 78 | 1014.7 |
| 20260904170015 | 11 | 194 | 4.8 | 0.0 | 0.00 | 0.00 | 0.18 | 84 | 1014.6 |
| 20260904164512 | 10 | 164 | 3.2 | 0.0 | 0.00 | 0.00 | 0.18 | 91 | 1014.5 |
| 20260904163047 | 9 | 151 | 1.6 | 0.0 | 0.00 | 0.00 | 0.15 | 93 | 1014.4 |
| 20260904161551 | 9 | 150 | 4.8 | 0.0 | 0.00 | 0.00 | 0.13 | 94 | 1014.4 |
| 20260904160032 | 9 | 101 | 1.6 | 0.0 | 0.00 | 0.00 | 0.13 | 95 | 1014.3 |
| 20260904154526 | 8 | 126 | 1.6 | 0.0 | 0.00 | 0.00 | 0.10 | 95 | 1014.1 |
| 20260904153003 | 8 | 257 | 0.0 | 0.0 | 0.00 | 0.00 | 0.10 | 95 | 1014.0 |
| 20260904151600 | 7 | 257 | 0.0 | 0.0 | 0.00 | 0.00 | 0.08 | 95 | 1014.0 |
| 20260904150041 | 7 | 257 | 0.0 | 0.0 | 0.00 | 0.00 | 0.08 | 95 | 1013.9 |
| 20260904144555 | 7 | 257 | 0.0 | 0.0 | 0.00 | 0.00 | 0.05 | 95 | 1013.7 |
| 20260904143019 | 7 | 257 | 0.0 | 0.0 | 0.00 | 0.00 | 0.03 | 95 | 1013.2 |
| 20260904141529 | 7 | 257 | 0.0 | 0.0 | 0.00 | 0.00 | 0.03 | 95 | 1012.9 |
| 20260904140059 | 7 | 257 | 0.0 | 0.0 | 0.00 | 0.00 | 1.65 | 95 | 1013.0 |
| 20260904134557 | 6 | 257 | 0.0 | 0.0 | 0.00 | 0.00 | 1.63 | 95 | 1012.8 |
| 20260904133038 | 6 | 257 | 0.0 | 0.0 | 0.00 | 0.00 | 1.63 | 95 | 1012.6 |
| 20260904131534 | 7 | 257 | 0.0 | 0.0 | 0.00 | 0.00 | 1.60 | 95 | 1012.1 |
| 20260904130020 | 7 | 257 | 0.0 | 0.0 | 0.00 | 0.00 | 1.57 | 95 | 1011.9 |
| 20260904124520 | 7 | 257 | 0.0 | 0.0 | 0.00 | 0.00 | 1.55 | 95 | 1012.2 |
| 20260904123055 | 7 | 257 | 0.0 | 0.0 | 0.00 | 0.00 | 1.52 | 95 | 1012.0 |
| 20260904121555 | 7 | 257 | 0.0 | 0.0 | 0.00 | 0.00 | 1.50 | 95 | 1011.9 |
| 20260904120048 | 7 | 257 | 0.0 | 0.0 | 0.00 | 0.00 | 1.45 | 95 | 1011.7 |
| 20260904114543 | 7 | 257 | 0.0 | 0.0 | 0.00 | 0.00 | 1.42 | 95 | 1011.7 |
| 20260904113027 | 7 | 257 | 0.0 | 0.0 | 0.00 | 0.00 | 1.42 | 95 | 1011.5 |
| 20260904111516 | 7 | 257 | 0.0 | 0.0 | 0.00 | 0.00 | 1.40 | 95 | 1011.5 |
| 20260904110100 | 7 | 257 | 0.0 | 0.0 | 0.00 | 0.00 | 1.37 | 95 | 1010.9 |
| 20260904104559 | 7 | 257 | 0.0 | 0.0 | 0.00 | 0.00 | 1.35 | 95 | 1010.7 |
| 20260904103040 | 7 | 257 | 0.0 | 0.0 | 0.00 | 0.00 | 1.32 | 95 | 1010.3 |
| 20260904101537 | 7 | 257 | 0.0 | 0.0 | 0.00 | 0.00 | 1.30 | 95 | 1010.4 |
| 20260904100022 | 7 | 257 | 1.6 | 0.0 | 0.00 | 0.00 | 1.27 | 95 | 1010.5 |
| 20260904094532 | 7 | 257 | 3.2 | 0.0 | 0.00 | 0.00 | 1.22 | 94 | 1010.0 |
| 20260904093002 | 7 | 257 | 0.0 | 0.0 | 0.00 | 0.00 | 1.19 | 94 | 1009.9 |
| 20260904091600 | 7 | 257 | 3.2 | 0.0 | 0.00 | 0.00 | 1.17 | 94 | 1009.9 |
| 20260904090044 | 8 | 265 | 4.8 | 0.0 | 0.00 | 0.00 | 1.14 | 94 | 1010.5 |
| 20260904084541 | 8 | 270 | 0.0 | 0.0 | 0.00 | 0.00 | 1.09 | 94 | 1009.9 |
| 20260904083023 | 8 | 270 | 0.0 | 0.0 | 0.00 | 0.00 | 1.07 | 94 | 1009.7 |
| 20260904081522 | 8 | 270 | 1.6 | 0.0 | 0.00 | 0.00 | 1.02 | 94 | 1009.6 |
| 20260904080004 | 8 | 270 | 3.2 | 0.0 | 0.00 | 0.00 | 0.99 | 94 | 1009.7 |
| 20260904074504 | 8 | 271 | 0.0 | 0.0 | 0.00 | 0.00 | 0.97 | 94 | 1009.8 |
| 20260904073056 | 8 | 271 | 0.0 | 0.0 | 0.00 | 0.00 | 0.91 | 94 | 1009.6 |
| 20260904071547 | 8 | 271 | 1.6 | 0.0 | 0.00 | 0.00 | 0.86 | 94 | 1009.7 |
| 20260904070027 | 8 | 271 | 0.0 | 0.0 | 0.00 | 0.00 | 0.84 | 93 | 1009.3 |
| 20260904064532 | 8 | 271 | 4.8 | 0.0 | 0.00 | 0.00 | 0.81 | 93 | 1009.2 |
| 20260904063012 | 8 | 280 | 8.0 | 0.0 | 0.00 | 0.00 | 0.76 | 93 | 1008.9 |
| 20260904061504 | 8 | 283 | 8.0 | 0.0 | 0.00 | 0.00 | 0.71 | 93 | 1008.5 |
| 20260904060104 | 8 | 288 | 8.0 | 0.0 | 0.00 | 0.00 | 0.71 | 93 | 1008.4 |
| 20260904054551 | 8 | 281 | 9.7 | 0.0 | 0.00 | 0.00 | 0.66 | 93 | 1008.3 |
| 20260904053025 | 8 | 288 | 11.3 | 0.0 | 0.00 | 0.00 | 0.64 | 92 | 1008.2 |
| 20260904051522 | 10 | 296 | 4.8 | 0.0 | 0.00 | 0.00 | 0.61 | 92 | 1008.1 |
| 20260904050001 | 10 | 304 | 4.8 | 0.0 | 0.00 | 0.00 | 0.56 | 92 | 1007.9 |
| 20260904044602 | 10 | 360 | 6.4 | 0.0 | 0.00 | 0.00 | 0.53 | 92 | 1007.9 |
| 20260904043042 | 10 | 14 | 0.0 | 0.0 | 0.00 | 0.00 | 0.51 | 92 | 1008.4 |
| 20260904041543 | 10 | 14 | 0.0 | 0.0 | 0.00 | 0.00 | 0.51 | 91 | 1008.5 |
| 20260904040037 | 11 | 14 | 0.0 | 0.0 | 0.00 | 0.00 | 0.46 | 91 | 1008.6 |
| 20260904034523 | 11 | 14 | 0.0 | 0.0 | 0.00 | 0.00 | 0.46 | 91 | 1008.3 |
| 20260904033005 | 11 | 14 | 0.0 | 0.0 | 0.00 | 0.00 | 0.43 | 91 | 1008.6 |
| 20260904031504 | 11 | 14 | 1.6 | 0.0 | 0.00 | 0.00 | 0.41 | 90 | 1008.2 |
| 20260904030047 | 11 | 14 | 0.0 | 0.0 | 0.00 | 0.00 | 0.38 | 90 | 1008.2 |
| 20260904024551 | 11 | 14 | 0.0 | 0.0 | 0.00 | 0.00 | 0.36 | 89 | 1007.9 |
| 20260904023036 | 11 | 14 | 1.6 | 0.0 | 0.00 | 0.00 | 0.36 | 88 | 1008.3 |
| 20260904021541 | 12 | 15 | 0.0 | 0.0 | 0.00 | 0.00 | 0.33 | 87 | 1007.6 |
| 20260904020010 | 12 | 14 | 0.0 | 0.0 | 0.00 | 0.00 | 0.33 | 86 | 1007.8 |
| 20260904014509 | 12 | 14 | 0.0 | 0.0 | 0.00 | 0.00 | 0.30 | 85 | 1007.8 |
| 20260904013110 | 13 | 15 | 0.0 | 0.0 | 0.00 | 0.00 | 0.30 | 84 | 1008.2 |
| 20260904011550 | 13 | 14 | 0.0 | 0.0 | 0.00 | 0.00 | 0.28 | 83 | 1008.3 |
| 20260904010034 | 13 | 15 | 0.0 | 0.0 | 0.00 | 0.00 | 0.28 | 81 | 1008.4 |
| 20260904004532 | 13 | 14 | 0.0 | 0.0 | 0.00 | 0.00 | 0.25 | 79 | 1008.2 |
| 20260904003024 | 14 | 14 | 0.0 | 0.0 | 0.00 | 0.00 | 0.25 | 78 | 1008.5 |
| 20260904001522 | 14 | 15 | 0.0 | 0.0 | 0.00 | 0.00 | 0.25 | 78 | 1008.5 |
| 20260904000019 | 14 | 15 | 0.0 | 0.0 | 0.00 | 0.00 | 0.25 | 77 | 1008.2 |
| 20260903234517 | 14 | 14 | 0.0 | 0.0 | 0.00 | 0.00 | 0.25 | 75 | 1008.8 |
| 20260903233030 | 14 | 15 | 1.6 | 0.0 | 0.00 | 0.00 | 0.25 | 74 | 1008.7 |
| 20260903231517 | 14 | 13 | 1.6 | 0.0 | 0.00 | 0.00 | 0.25 | 73 | 1008.8 |
| 20260903230012 | 15 | 13 | 0.0 | 0.0 | 0.00 | 0.00 | 0.25 | 72 | 1009.1 |
| 20260903224522 | 15 | 13 | 1.6 | 0.0 | 0.00 | 0.00 | 0.25 | 71 | 1009.2 |
| 20260903223053 | 15 | 11 | 1.6 | 0.0 | 0.00 | 0.00 | 0.25 | 72 | 1009.3 |
| 20260903221551 | 15 | 9 | 0.0 | 0.0 | 0.00 | 0.00 | 0.25 | 71 | 1009.4 |
| 20260903220031 | 14 | 9 | 1.6 | 0.0 | 0.00 | 0.00 | 0.25 | 73 | 1010.0 |
| 20260903214534 | 14 | 5 | 1.6 | 0.0 | 0.00 | 0.00 | 0.25 | 74 | 1010.1 |
| 20260903213011 | 14 | 360 | 1.6 | 0.0 | 0.00 | 0.00 | 0.25 | 77 | 1010.1 |
| 20260903211510 | 14 | 322 | 1.6 | 0.0 | 0.00 | 0.00 | 0.25 | 77 | 1010.0 |
| 20260903210052 | 13 | 301 | 1.6 | 0.0 | 0.00 | 0.00 | 0.25 | 82 | 1010.0 |
| 20260903204548 | 13 | 300 | 1.6 | 0.0 | 0.00 | 0.00 | 0.25 | 84 | 1010.3 |
| 20260903203029 | 12 | 299 | 0.0 | 0.0 | 0.00 | 0.00 | 0.25 | 85 | 1010.3 |
| 20260903201529 | 12 | 299 | 1.6 | 0.0 | 0.00 | 0.00 | 0.25 | 87 | 1010.4 |
| 20260903200010 | 12 | 298 | 0.0 | 0.0 | 0.00 | 0.00 | 0.25 | 89 | 1010.4 |